Time,TemperatureF,DewpointF,PressureIn,WindDirection,WindDirectionDegrees,WindSpeedMPH,WindSpeedGustMPH,Humidity,HourlyPrecipIn,Conditions,Clouds,dailyrainin,SolarRadiationWatts/m^2,SoftwareType,DateUTC
2015-05-29 00:02:00,50.0,47.0,29.97,SSW,200,7.0,-999.0,89,-99.99,,,-99.99,0.000000,,2015-05-29 07:02:00,
2015-05-29 00:11:00,50.0,47.0,29.97,SSW,200,7.0,-999.0,89,-99.99,,,-99.99,0.000000,,2015-05-29 07:11:00,
2015-05-29 00:21:00,50.0,47.0,29.97,SSW,200,7.0,-999.0,89,-99.99,,,-99.99,0.000000,,2015-05-29 07:21:00,
2015-05-29 00:31:00,51.0,48.0,29.97,WSW,238,6.0,-999.0,89,-99.99,,,-99.99,0.000000,,2015-05-29 07:31:00,
2015-05-29 00:43:00,51.0,48.0,29.97,WSW,238,6.0,-999.0,89,-99.99,,,-99.99,0.000000,,2015-05-29 07:43:00,
2015-05-29 01:01:00,51.0,48.0,29.98,WSW,252,3.0,-999.0,89,-99.99,,,-99.99,0.000000,,2015-05-29 08:01:00,
2015-05-29 01:11:00,51.0,48.0,29.98,WSW,252,3.0,-999.0,89,-99.99,,,-99.99,0.000000,,2015-05-29 08:11:00,
2015-05-29 01:31:00,51.0,48.0,29.97,SSW,213,5.0,-999.0,89,-99.99,,,-99.99,0.000000,,2015-05-29 08:31:00,
2015-05-29 01:42:00,51.0,48.0,29.97,SSW,213,5.0,-999.0,89,-99.99,,,-99.99,0.000000,,2015-05-29 08:42:00,
2015-05-29 01:51:00,51.0,48.0,29.97,SSW,213,6.0,-999.0,89,-99.99,,,-99.99,0.000000,,2015-05-29 08:51:00,
2015-05-29 02:02:00,51.0,48.0,29.97,SSW,213,6.0,-999.0,89,-99.99,,,-99.99,0.000000,,2015-05-29 09:02:00,
2015-05-29 02:11:00,51.0,48.0,29.97,SSW,213,6.0,-999.0,89,-99.99,,,-99.99,0.000000,,2015-05-29 09:11:00,
2015-05-29 02:31:00,51.0,48.0,29.97,SW,214,6.0,-999.0,89,-99.99,,,-99.99,0.000000,,2015-05-29 09:31:00,
2015-05-29 02:43:00,51.0,48.0,29.97,SW,214,6.0,-999.0,89,-99.99,,,-99.99,0.000000,,2015-05-29 09:43:00,
2015-05-29 03:02:00,50.0,47.0,29.97,South,182,7.0,-999.0,89,-99.99,,,-99.99,0.000000,,2015-05-29 10:02:00,
2015-05-29 03:11:00,50.0,47.0,29.97,South,182,7.0,-999.0,89,-99.99,,,-99.99,0.000000,,2015-05-29 10:11:00,
2015-05-29 03:21:00,50.0,47.0,29.97,South,182,7.0,-999.0,89,-99.99,,,-99.99,0.000000,,2015-05-29 10:21:00,
2015-05-29 03:31:00,50.0,47.0,29.96,West,261,7.0,-999.0,90,-99.99,,,-99.99,0.000000,,2015-05-29 10:31:00,
2015-05-29 03:42:00,50.0,47.0,29.96,West,261,7.0,-999.0,90,-99.99,,,-99.99,0.000000,,2015-05-29 10:42:00,
2015-05-29 04:02:00,50.0,47.0,29.96,WSW,245,6.0,-999.0,89,-99.99,,,-99.99,0.000000,,2015-05-29 11:02:00,
2015-05-29 04:11:00,50.0,47.0,29.96,WSW,245,6.0,-999.0,89,-99.99,,,-99.99,0.000000,,2015-05-29 11:11:00,
2015-05-29 04:21:00,50.0,47.0,29.96,WSW,245,6.0,-999.0,89,-99.99,,,-99.99,0.000000,,2015-05-29 11:21:00,
2015-05-29 04:31:00,50.0,47.0,29.95,SW,228,5.0,-999.0,90,-99.99,,,-99.99,0.000000,,2015-05-29 11:31:00,
2015-05-29 04:42:00,50.0,47.0,29.95,SW,228,5.0,-999.0,90,-99.99,,,-99.99,0.000000,,2015-05-29 11:42:00,
2015-05-29 05:01:00,50.0,47.0,29.95,SW,230,4.0,-999.0,89,-99.99,,,-99.99,0.000000,,2015-05-29 12:01:00,
2015-05-29 05:11:00,50.0,47.0,29.95,SW,230,4.0,-999.0,89,-99.99,,,-99.99,0.000000,,2015-05-29 12:11:00,
2015-05-29 05:31:00,50.0,47.0,29.95,SW,232,4.0,-999.0,89,-99.99,,,-99.99,0.000000,,2015-05-29 12:31:00,
2015-05-29 05:42:00,50.0,47.0,29.95,SW,232,4.0,-999.0,89,-99.99,,,-99.99,0.000000,,2015-05-29 12:42:00,
2015-05-29 05:52:00,50.0,47.0,29.95,SSW,206,5.0,-999.0,90,-99.99,,,-99.99,0.000000,,2015-05-29 12:52:00,
2015-05-29 06:01:00,50.0,47.0,29.95,SSW,206,5.0,-999.0,90,-99.99,,,-99.99,0.000000,,2015-05-29 13:01:00,
2015-05-29 06:11:00,50.0,47.0,29.95,SSW,206,5.0,-999.0,90,-99.99,,,-99.99,0.000000,,2015-05-29 13:11:00,
2015-05-29 06:21:00,50.0,47.0,29.95,SSW,192,4.0,-999.0,89,-99.99,,,-99.99,5.000000,,2015-05-29 13:21:00,
2015-05-29 06:31:00,50.0,47.0,29.95,SSW,192,4.0,-999.0,89,-99.99,,,-99.99,5.000000,,2015-05-29 13:31:00,
2015-05-29 06:42:00,50.0,47.0,29.95,SSW,192,4.0,-999.0,89,-99.99,,,-99.99,5.000000,,2015-05-29 13:42:00,
2015-05-29 07:01:00,50.0,47.0,29.96,SSW,206,4.0,-999.0,90,-99.99,,,-99.99,18.000000,,2015-05-29 14:01:00,
2015-05-29 07:11:00,50.0,47.0,29.96,SSW,206,4.0,-999.0,90,-99.99,,,-99.99,18.000000,,2015-05-29 14:11:00,
2015-05-29 07:21:00,49.0,46.0,29.96,SW,216,6.0,-999.0,89,-99.99,,,-99.99,53.000000,,2015-05-29 14:21:00,
2015-05-29 07:31:00,49.0,46.0,29.96,SW,216,6.0,-999.0,89,-99.99,,,-99.99,53.000000,,2015-05-29 14:31:00,
2015-05-29 07:43:00,49.0,46.0,29.96,SW,216,6.0,-999.0,89,-99.99,,,-99.99,53.000000,,2015-05-29 14:43:00,
2015-05-29 07:51:00,50.0,47.0,29.96,SW,234,3.0,-999.0,89,-99.99,,,-99.99,67.000000,,2015-05-29 14:51:00,
2015-05-29 08:01:00,50.0,47.0,29.96,SW,234,3.0,-999.0,89,-99.99,,,-99.99,67.000000,,2015-05-29 15:01:00,
2015-05-29 08:11:00,50.0,47.0,29.96,SW,234,3.0,-999.0,89,-99.99,,,-99.99,67.000000,,2015-05-29 15:11:00,
2015-05-29 08:31:00,50.0,47.0,29.96,SW,217,6.0,-999.0,89,-99.99,,,-99.99,102.000000,,2015-05-29 15:31:00,
2015-05-29 08:42:00,50.0,47.0,29.96,SW,217,6.0,-999.0,89,-99.99,,,-99.99,102.000000,,2015-05-29 15:42:00,
2015-05-29 09:02:00,50.0,47.0,29.97,SSW,203,4.0,-999.0,90,-99.99,,,-99.99,153.000000,,2015-05-29 16:02:00,
2015-05-29 09:11:00,50.0,47.0,29.97,SSW,203,4.0,-999.0,90,-99.99,,,-99.99,153.000000,,2015-05-29 16:11:00,
2015-05-29 09:31:00,49.0,46.0,29.97,WSW,241,5.0,-999.0,90,-99.99,,,-99.99,218.000000,,2015-05-29 16:31:00,
2015-05-29 09:43:00,49.0,46.0,29.97,WSW,241,5.0,-999.0,90,-99.99,,,-99.99,218.000000,,2015-05-29 16:43:00,
2015-05-29 10:01:00,50.0,47.0,29.98,SW,233,5.0,-999.0,90,-99.99,,,-99.99,225.000000,,2015-05-29 17:01:00,
2015-05-29 10:11:00,50.0,47.0,29.98,SW,233,5.0,-999.0,90,-99.99,,,-99.99,225.000000,,2015-05-29 17:11:00,
2015-05-29 10:22:00,50.0,47.0,29.98,SW,233,5.0,-999.0,90,-99.99,,,-99.99,225.000000,,2015-05-29 17:22:00,
2015-05-29 10:31:00,50.0,47.0,29.97,SSW,192,6.0,-999.0,90,-99.99,,,-99.99,276.000000,,2015-05-29 17:31:00,
2015-05-29 10:43:00,50.0,47.0,29.97,SSW,192,6.0,-999.0,90,-99.99,,,-99.99,276.000000,,2015-05-29 17:43:00,
2015-05-29 10:52:00,51.0,48.0,29.98,SSE,157,5.0,-999.0,90,-99.99,,,-99.99,299.000000,,2015-05-29 17:52:00,
2015-05-29 11:02:00,51.0,48.0,29.98,SSE,157,5.0,-999.0,90,-99.99,,,-99.99,299.000000,,2015-05-29 18:02:00,
2015-05-29 11:11:00,51.0,48.0,29.98,SSE,157,5.0,-999.0,90,-99.99,,,-99.99,299.000000,,2015-05-29 18:11:00,
2015-05-29 11:21:00,51.0,48.0,29.98,SSE,157,5.0,-999.0,90,-99.99,,,-99.99,299.000000,,2015-05-29 18:21:00,
2015-05-29 11:31:00,51.0,48.0,29.98,SSW,202,7.0,-999.0,90,-99.99,,,-99.99,445.000000,,2015-05-29 18:31:00,